Regional Weather Roundup
Issued by NWS

Home | Current Version | Previous Version | Graphics & Text | Print | Product List | Glossary On
Versions: 1 2 3 4 5 6 7 8 9 10 11 12 13 14 15 16 17 18 19 20 21 22 23 24 25 26 27 28 29 30 31 32 33 34 35 36 37 38 39 40 41 42 43 44 45 46 47 48 49 50
000
ASUS45 KTFX 311919
RWRMT
MONTANA HOURLY WEATHER ROUNDUP
NATIONAL WEATHER SERVICE GREAT FALLS MT
1219 PM MST SAT JAN 31 2015

NOTE: "FAIR" INDICATES FEW OR NO CLOUDS BELOW 12000 FEET WITH NO
SIGNIFICANT WEATHER AND/OR OBSTRUCTIONS TO VISIBILITY.

* THESE STATIONS ARE NOT UNDER NWS QUALITY CONTROL. THEY DO NOT
   REPORT WEATHER SUCH AS PRECIPITATION OR FOG.

MTZ001>007-043-312000-
WEST OF THE DIVIDE
CITY           SKY/WX    TMP DP  RH WIND       PRES   REMARKS
KALISPELL      FOG       27  25  92 W5        30.18S WCI  21
MISSOULA       CLOUDY    30  25  82 CALM      30.16S
BUTTE          SUNNY     34  18  52 CALM      30.04F
MULLAN PASS    HAZE      25  19  78 NW7       30.09S VSB M1/4 WCI  17
* ANACONDA     SUNNY     32  19  59 N9         N/A   WCI  24
* EUREKA APT   SUNNY     28  25  89 CALM      30.24R
* HAMILTON APT SUNNY     37  23  57 NE6       30.11F WCI  32
* LIBBY APT    SUNNY     34  27  76 CALM      30.22S
* LINCOLN      N/A       21  13  71 NE16G26    N/A   WCI   7
* LOOKOUT PASS N/A       24  24 100 N4         N/A
* POLSON       N/A       26  25  96 N2         N/A
* RONAN APT    PTCLDY    27  25  92 N/A        N/A
* SEELEY LAKE  N/A       25  18  75 NW3        N/A
* THOMP F APT  SUNNY     28  13  53 S3         N/A
$$

MTZ008-052>055-312000-
SOUTHWEST MONTANA
CITY           SKY/WX    TMP DP  RH WIND       PRES   REMARKS
BOZEMAN        CLOUDY    32  25  75 W5        30.05R WCI  27
DILLON         SUNNY     37  18  46 CALM      30.03F
* W YELLOWSTON SUNNY     18  10  71 NW1        N/A
* THREE FORKS  PTCLDY    36  36 100 NW11G18    N/A   WCI  28
* BOULDER HILL N/A       23  19  85 N19G24     N/A   WCI   9
* WHITEHALL    N/A       40  20  45 W4         N/A
* WISE RIVER   N/A       21  10  62 W4         N/A
$$

MTZ009>010-012-014-046-048-049-054-312000-
EAST SLOPES AND CENTRAL MONTANA
CITY           SKY/WX    TMP DP  RH WIND       PRES   REMARKS
CUT BANK       LGT SNOW  10   5  80 N23G29    30.29R VSB 1 3/4 WCI -10
GREAT FALLS    LGT SNOW  16  10  77 NW16      30.26R WCI   1
HELENA         LGT SNOW  25  16  69 N17G25    30.19R VSB 3    WCI  12
MALMSTROM AFB  LGT SNOW  16  10  77 NW16G23   30.29R WCI   1
* CONRAD       PTCLDY    12   9  88 W20G25     N/A   WCI  -6
* DEARBORN     N/A       20  16  84 N/A        N/A
* MONARCH      N/A       13  10  88 NW15G24    N/A   WCI  -3
* SWEET GRASS  N/A        7   7 100 N21        N/A   WCI -13
* WHITE SULPH  N/A       21  16  81 NW15G26    N/A   WCI   7
$$

MTZ011-013-016-021-035-040-045-047-050-051-312000-
NORTH CENTRAL MONTANA
CITY           SKY/WX    TMP DP  RH WIND       PRES   REMARKS
HAVRE          LGT SNOW  16  10  77 NE17      30.28R VSB 1 1/2
LEWISTOWN      SNOW      23  19  85 NW15G23   30.12R VSB 1/2  WCI  10
* N BAR RANCH  HAZE      25  21  85 NW23G29   30.03S VSB 1    WCI  10
* CHINOOK      PTCLDY    14   9  80 NE10      30.31R VSB 1/2  WCI   1
* MALTA APT    PTSUNNY   16   9  74 N14G21     N/A   WCI   2
* CHESTER      N/A       14   8  77 N11G18     N/A   WCI   1
* DENTON       N/A       23  20  88 NW20G27    N/A   WCI   8
$$

MTZ017>020-022>027-061-062-312000-
NORTHEAST MONTANA
CITY           SKY/WX    TMP DP  RH WIND       PRES   REMARKS
GLASGOW        SNOW      12   7  80 NE21      30.23R VSB 1/2  WCI  -7
GLENDIVE       CLOUDY    19  18  96 NE20      30.13S VSB 1 1/2 WCI   3
JORDAN         PTSUNNY   25  21  85 NE13      30.11S WCI  13
SIDNEY         CLOUDY    12   9  88 NE20      30.26R VSB 1    WCI  -6
WOLF POINT     SNOW      14   9  80 E26G32    30.26R VSB 1/2  WCI  -6
* CIRCLE       N/A       17  15  92 NE18G24    N/A   WCI   1
* LINDSAY DVD  N/A       18  17  96 E14G22     N/A   WCI   4
* PLENTYWOOD A CLOUDY     7   1  76 E20G29    30.30S VSB 1 1/2 WCI -13
* POPLAR APT   CLOUDY    10   7  88 N/A       30.26R VSB M1/4
* SACO         N/A       15  10  80 NE16       N/A   WCI  -1
* SCOBEY APT   PTCLDY     9   0  66 NE18G24    N/A   WCI  -9
$$

MTZ028>042-056>058-312000-
SOUTHCENTRAL AND SOUTHEAST MONTANA
CITY           SKY/WX    TMP DP  RH WIND       PRES   REMARKS
BAKER          FOG       21  19  92 E25G32    30.03F VSB 3    WCI   4
BILLINGS       CLOUDY    30  25  82 NE15G24   30.04R WCI  19
LIVINGSTON     CLOUDY    39  21  48 NW16G24   30.00R WCI  30
MILES CITY     FOG       27  25  92 NE17      30.02R WCI  14
* BIG TIMBER A PTCLDY    36  21  54 N9        29.99R WCI  29
* FORSYTH APT  CLOUDY    28  27  96 W7        30.03R WCI  21
* LAUREL APT   PTCLDY    32  18  56 NE11G18    N/A   WCI  23
* ROUNDUP APT  CLOUDY    27  21  78 N9         N/A   WCI  18
* ALZADA       N/A       25  24  96 E12        N/A   WCI  14
* HYSHAM       N/A       25  23  92 N4G12      N/A
* LAME DEER    N/A       33  22  64 W10        N/A   WCI  25
$$

REGIONAL REPORTS...DAKOTAS
CITY           SKY/WX    TMP DP  RH WIND       PRES   REMARKS
WILLISTON      LGT SNOW  10   3  73 NE13      30.31S VSB 3/4  WCI  -5
DICKINSON      LGT SNOW  12   9  88 E20       30.14S VSB 2 1/2 WCI  -6
BEACH          LGT SNOW  16  16 100 N/A       30.12R
CROSBY         LGT SNOW   5   1  83 E16       30.38S VSB 2 1/2 WCI -14
TIOGA          LGT SNOW   3   0  87 NE17G25   30.33S VSB 2    WCI -17
WATFORD CITY   LGT SNOW  10   5  80 E17       30.25S VSB 2 1/2 WCI  -8
BISMARCK       PTCLDY    16   3  56 E15G24    30.28F WCI   1
GRAND FORKS    CLOUDY     1  -8  65 N18       30.46S WCI -20
FARGO          PTCLDY    12  -2  53 N21       30.35F WCI  -7
BUFFALO SD     PTSUNNY   21  19  92 E15       29.97R WCI   7
RAPID CITY     FOG       25  25 100 E8        29.99F VSB 3/4  WCI  16
$$

REGIONAL REPORTS...WYOMING/IDAHO/WASHINGTON
CITY           SKY/WX    TMP DP  RH WIND       PRES   REMARKS
GILLETTE       SUNNY     43  25  49 S13       29.87F
SHERIDAN       PTSUNNY   37  21  52 NW21G29   29.95R WCI  26
CODY           PTCLDY    41  18  39 N14       29.91F
YELLOWSTONE LA SUNNY      3   0  87 CALM      30.01F
SALMON         CLOUDY    28  18  66 N3        30.21F
MULLAN PASS    HAZE      25  19  78 NW7       30.09S VSB M1/4 WCI  17
SAND POINT     CLOUDY    32  28  85 S6        30.28R WCI  26
SPOKANE        LGT SNOW  30  28  92 SW7       30.29R WCI  23
$$

REGIONAL REPORTS...ALBERTA
CITY           SKY/WX    TMP DP  RH WIND       PRES   REMARKS
CALGARY        LGT SNOW   7   1  76 NE5       30.36S WCI  -2
LETHBRIDGE     LGT SNOW   9   5  84 NW8       30.41R VSB 3    WCI  -3
MEDICINE HAT   LGT SNOW   9   3  76 NE12      30.45R VSB 2 1/2 WCI  -6
EDMONTON       LGT SNOW   3  -2  79 S5        30.48F WCI  -7
WATERTON GATE  N/A       10   7  88 NE6        N/A
CARDSTON       N/A       10   9  96 N10        N/A   WCI  -4
MILK RIVER     N/A        9   7  91 N18        N/A   WCI  -9
$$

REGIONAL REPORTS...SASKATCHEWAN
CITY           SKY/WX    TMP DP  RH WIND       PRES   REMARKS
SWIFT CURRENT  CLOUDY    -2  -6  83 NE14      30.38S WCI -21
REGINA         PTSUNNY    0 -11  59 NE14      30.47R WCI -19
VAL MARIE      N/A        9   5  84 NE20       N/A   WCI -10
ASSINIBOIA     N/A        1  -4  79 NE17       N/A   WCI -19
CORONACH       N/A        9   3  76 NE14G21    N/A   WCI  -7

$$



USA.gov is the U.S. government's official web portal to all federal, state and local government web resources and services.